AMC-14

Satellite information

Favourite Embed

Satellite Type and Status

PAYLOADIN ORBIT

Key statistics

Satellite AMC-14 at a glance.

Uptime

6484

Days in orbit

Revolutions

≈ 1.0

Per day

Orbit

OTHER

Other

Inclination

23.8

Latest

Satellite identification and parameters

Extended collection of information and parameters for AMC-14.

Object identification

Identified? True

Debris? False

Object name: AMC-14

International designator: 2008-011A

Object number (NORAD): 32708

Object ID (CCSDS): 32708

Country: UNITED STATES OF AMERICA (US)

Current information (Y/N): Y

RCS size: LARGE

Orbital parameters

Period: 1435.911 minutes

Inclination: 23.7768 deg

SMA: 42161.089 km

Apoapsis: 35953.662 km

Periapsis: 35612.246 km

RAAN: 22.8043 deg

Eccentricy: 0.00404894

Argument of periapsis: 349.1406 deg

Mean anomaly: 6.9495 deg

Mean motion: 1.00284782 rev/day

Mean motion (dot): 0.00000102 rev/day2

B* drag term: 0.0 1/REarth

Two-line elements (TLE)

Creation date: Dec. 10, 2025, 10:40 a.m.

Reference frame: TEME

Reference center: EARTH

Epoch: Dec. 9, 2025, 5:56 p.m. UTC

TLE line 0: 0 AMC-14

TLE line 1: 1 32708U 08011A 25343.74767042 .00000102 00000-0 00000-0 0 9997

TLE line 2: 2 32708 23.7768 22.8043 0040489 349.1406 6.9495 1.00284782 66261

Live tracking on map

Real-time ground track for satellite AMC-14.

In-orbit conjunctions

There are no conjunctions computed for AMC-14, at the moment. Check back to stay up to date, as we update our databases every day.

Go to all conjunctions

Associated space launch

American communications satellite scheduled to operate in GEO, but was left stranded in a too low transfer orbit due to a launch vehicle failure. It was sold to the US Department of Defense and operated from geosynchronous orbit.

AMC-14 was lifted into orbit during the mission ‘Proton-M Briz-M | AMC 14’, on board a Proton-M Briz-M space rocket.

The launch took place on March 14, 2008, 11:18 p.m. from 200/39 (200L).

For more information about the launch, click the button.

Launch to space Proton-M Briz-M | AMC 14
Proton-M Briz-M | AMC 14

Agency: N/A

Status: Launch Failure

Launch date: March 14, 2008, 11:18 p.m. UTC

Rocket: Proton-M Briz-M

Launch pad: 200/39 (200L)

Location: Baikonur Cosmodrome, Republic of Kazakhstan

...

Latest news about this satellite

There are no fresh news available about this satellite. Check back as we update our databases every day.


Newsletter sign-up

Weekly statistics, charts and insights to help you stay on top of the space industry.